Regional Weather Roundup
Issued by NWS Albany, NY

Home | Current Version | Previous Version | Text Only | Print | Product List | Glossary On
Versions: 1 2 3 4 5 6 7 8 9 10 11 12 13 14 15 16 17 18 19 20 21 22 23 24 25 26 27 28 29 30 31 32 33 34 35 36 37 38 39 40 41 42 43 44 45 46 47 48 49 50
553
ASUS41 KALY 061910
RWRALY

NEW YORK STATE HOURLY WEATHER ROUNDUP
NATIONAL WEATHER SERVICE ALBANY NY
200 PM EST SAT FEB 06 2016

NOTE: "FAIR" INDICATES FEW OR NO CLOUDS BELOW 12,000 FEET WITH NO
SIGNIFICANT WEATHER AND/OR NO OBSTRUCTIONS TO VISIBILITY.

NYZ032-033-038>043-046>054-057>066-NYZ062>081-062000-
EAST


CITY           SKY/WX    TMP DP  RH WIND       PRES   REMARKS
ALBANY         CLOUDY    40  17  39 S10G21    30.20F WCI  33
GLENS FALLS    CLOUDY    38  19  46 S10G21    30.17F WCI  31
POUGHKEEPSIE   SUNNY     42  15  33 SW10      30.26F
NEWBURGH       MOSUNNY   41  18  38 SW12      30.26F
MONTGOMERY     MOSUNNY   42  19  39 SW16G22   30.24F
WHITE PLAINS   MOSUNNY   38  17  42 SW8       30.29F WCI  32
ISLIP          PTSUNNY   36  23  59 SW12      30.33F WCI  28
NEW YORK CITY  PTSUNNY   40  21  46 SW9       30.33F WCI  34
CENTRAL PARK   PTSUNNY   38  18  44 VRB6      30.34F WCI  33
$$

NYZ005>009-017-018-044>046-055-056-062000-
CENTRAL


CITY           SKY/WX    TMP DP  RH WIND       PRES   REMARKS
FULTON         CLOUDY    39  27  62 W10       30.17F WCI  32
SYRACUSE       CLOUDY    38  20  48 W18G24    30.17F WCI  28
ROME           CLOUDY    38  20  48 W13       30.18F WCI  30
ELMIRA         MOSUNNY   43  20  39 SW16G25   30.15F
BINGHAMTON     CLOUDY    36  18  48 SW13      30.14F WCI  27
MONTICELLO     CLOUDY    39  18  41 SW10G20   30.20F WCI  32
$$

NYZ026>034-041>043-062000-
NORTH


CITY           SKY/WX    TMP DP  RH WIND       PRES   REMARKS
WATERTOWN      CLOUDY    34  29  82 W10       30.14F WCI  26
FORT DRUM      NOT AVBL
MASSENA        LGT SNOW  32  27  81 SW16      30.10F WCI  21
SARANAC LAKE   LGT SNOW  29  24  82 SW12      30.04F WCI  19
PLATTSBURGH    CLOUDY    36  24  62 S6        30.11F WCI  31
$$

NYZ001>004-010>016-019>021-062000-
WEST


CITY           SKY/WX    TMP DP  RH WIND       PRES   REMARKS
NIAGARA FALLS  MOSUNNY   37  22  54 SW23G31   30.17F WCI  26
BUFFALO        MOSUNNY   34  24  67 SW28G35   30.18F WCI  21
DUNKIRK        MOSUNNY   33  24  69 SW15G24   30.22F WCI  23
JAMESTOWN      SUNNY     34  19  55 W14       30.16F WCI  24
WELLSVILLE     SUNNY     37  19  48 SW12G17   30.13F WCI  29
ROCHESTER      CLOUDY    35  26  69 W14G23    30.18F WCI  26
PENN YAN       CLOUDY    40  19  43 SW14      30.16F WCI  32
$$

             KEY
       WCI = WIND CHILL INDEX
       VSB = VISIBILITY
       HX  = HEAT INDEX
$$




USA.gov is the U.S. government's official web portal to all federal, state and local government web resources and services.